OneWeb SL0311

operational
NORAD ID: 49097 Int'l Des: 2021-075 Owner: ONEWEBN Country: UK Constellation: oneweb
LEOCIRCULARPOLARONEWEB_TYPE

Über OneWeb SL0311

Beschreibung wird geladen...

Live-Position

3D-Globus wird geladen...

Nächste Überflüge

Höhenverlauf

Altitude vs Time

uPlot chart will show altitude changes over time

Zweizeiliger Elementsatz

1 49097U 21075Y 26062.39266278 .00000218 00000-0 52706-3 0 9997
2 49097 87.9148 26.8651 0001845 67.8293 292.3034 13.17650393219697
Epoch: 3. März 2026 • Age: 32 hours

Aktueller Status

Höhe 1202.2 km
Geschwindigkeit 7.26 km/s
Subsatellitenpunkt 58.22°N, 114.14°E
Startdatum 21. Aug. 2021
Alter 4.5 years
Typ internet

Technische Details

Klassifizierung Payload
Masse 148.00 kg
Trockenmasse 140.00 kg
Gesamtmasse 148.00 kg
Länge 1.30 m
Durchmesser 1.00 m
Spannweite 5.00 m
Form Trapezoid+2 pan
Hersteller ONEWUS
Bus-Typ ARROW
Phasenstatus In Orbit
Besitzer/Staat ONEWEBN/UK

Große Konstellationen

Loading constellations...